Burnet, TX

6:17 PM CDT on April 24, 2017 (GMT -0500)
Burnet Municipal-Craddock

Weather History for KBMQ - January, 2012

Change the Weather History Date:

Thursday, January 12, 2012

  Actual Average Record
Temperature  
Mean Temperature 38 °F -  
Max Temperature 34 °F 57 °F 77 °F (2014)
Min Temperature 30 °F 37 °F 21 °F (1997)
Degree Days  
Heating Degree Days 28    
Moisture  
Dew Point 15 °F    
Average Humidity 41    
Maximum Humidity 65    
Minimum Humidity 18    
Precipitation  
Precipitation 0.00 in - - ()
Sea Level Pressure  
Sea Level Pressure 30.23 in    
Wind  
Wind Speed 13 mph (NNW)    
Max Wind Speed 20 mph    
Max Gust Speed 29 mph    
Visibility 10 miles    
Events      
Averages and records for this station are not official NWS values.
T = Trace of Precipitation, MM = Missing Value Source: NWS Daily Summary

Daily Weather History Graph

Daily Weather History Graph

Search for Another Location

Airport or City:

Trip Planner

Search our weather history database for the weather conditions in past years. The results will help you decide how hot, cold, wet, or windy it might be!

Date:

Astronomy

Jan. 12, 2012 Rise Set
Actual Time 7:31 AM CST 5:51 PM CST
Civil Twilight 7:05 AM CST 6:17 PM CST
Nautical Twilight 6:35 AM CST 6:46 PM CST
Astronomical Twilight 6:06 AM CST 7:16 PM CST
Moon 9:38 PM CST (1/12) 9:33 AM CST (1/12)
Length of Visible Light 11h 11m
Length of Day
10h 19m
Waning Gibbous, 87% of the Moon is Illuminated
Jan 12
Waning Gibbous
Jan 16
Last Quarter
Jan 23
New
Jan 30
First Quarter
Feb 7
Full

Hourly Weather History & Observations

Time (CST) Temp. Windchill Dew Point Humidity Pressure Visibility Wind Dir Wind Speed Gust Speed Precip Events Conditions
12:53 AM 44.1 °F 38.1 °F 30.9 °F 60% 30.02 in 10.0 mi NNW 11.5 mph 20.7 mph N/A   Partly Cloudy
1:53 AM 43.0 °F 36.4 °F 28.9 °F 58% 30.06 in 10.0 mi NNW 12.7 mph 26.5 mph N/A   Overcast
2:53 AM 39.9 °F 31.1 °F 27.0 °F 60% 30.09 in 10.0 mi NNW 17.3 mph 28.8 mph N/A   Mostly Cloudy
4:20 AM 37.4 °F 29.3 °F 26.6 °F 65% 30.15 in 10.0 mi North 12.7 mph 23.0 mph N/A   Scattered Clouds
4:53 AM 37.0 °F 29.8 °F 26.1 °F 65% 30.16 in 10.0 mi NNW 10.4 mph 24.2 mph N/A   Clear
5:53 AM 36.0 °F 27.1 °F 25.0 °F 64% 30.20 in 10.0 mi North 13.8 mph 23.0 mph N/A   Clear
6:53 AM 35.1 °F 25.5 °F 17.1 °F 48% 30.23 in 10.0 mi NNW 15.0 mph 23.0 mph N/A   Clear
7:53 AM 34.0 °F 25.0 °F 12.9 °F 42% 30.27 in 10.0 mi NNW 12.7 mph 19.6 mph N/A   Clear
9:53 AM 36.0 °F 26.7 °F 10.0 °F 34% 30.33 in 10.0 mi NNW 15.0 mph 25.3 mph N/A   Clear
10:53 AM 37.9 °F 29.6 °F 8.1 °F 29% 30.34 in 10.0 mi NNW 13.8 mph 23.0 mph N/A   Clear
11:53 AM 41.0 °F 33.1 °F 6.1 °F 24% 30.31 in 10.0 mi NNW 15.0 mph 23.0 mph N/A   Clear
12:53 PM 41.0 °F 33.5 °F 5.0 °F 23% 30.30 in 10.0 mi NW 13.8 mph 24.2 mph N/A   Clear
1:53 PM 45.0 °F 37.9 °F 6.1 °F 20% 30.26 in 10.0 mi NW 16.1 mph 24.2 mph N/A   Clear
2:53 PM 45.0 °F 37.1 °F 6.1 °F 20% 30.24 in 10.0 mi NW 19.6 mph 26.5 mph N/A   Clear
3:53 PM 45.0 °F 38.9 °F 7.0 °F 21% 30.24 in 10.0 mi NW 12.7 mph 25.3 mph N/A   Clear
4:53 PM 45.0 °F 38.5 °F 3.9 °F 18% 30.24 in 10.0 mi NNW 13.8 mph 21.9 mph N/A   Clear
5:53 PM 42.1 °F 38.4 °F 9.0 °F 26% 30.24 in 10.0 mi NW 5.8 mph - N/A   Clear
6:53 PM 39.0 °F 35.7 °F 10.9 °F 32% 30.27 in 10.0 mi WNW 4.6 mph - N/A   Clear
9:53 PM 30.9 °F - 18.0 °F 59% 30.28 in 10.0 mi Calm Calm - N/A   Clear
10:53 PM 30.9 °F 24.3 °F 18.0 °F 59% 30.29 in 10.0 mi West 6.9 mph - N/A   Clear